TimeCDT,TemperatureF,Dew PointF,Humidity,Sea Level PressureIn,VisibilityMPH,Wind Direction,Wind SpeedMPH,Gust SpeedMPH,PrecipitationIn,Events,Conditions,WindDirDegrees,DateUTC
12:52 AM,75.0,70.0,84,30.13,8.0,SSE,6.9,-,N/A,,Clear,150,2013-08-26 05:52:00
1:52 AM,73.9,70.0,87,30.12,8.0,SE,3.5,-,N/A,,Clear,140,2013-08-26 06:52:00
2:52 AM,72.0,69.1,91,30.12,7.0,Calm,Calm,-,N/A,,Clear,0,2013-08-26 07:52:00
3:52 AM,72.0,69.1,91,30.12,8.0,NE,3.5,-,N/A,,Clear,40,2013-08-26 08:52:00
4:52 AM,72.0,68.0,87,30.12,7.0,Calm,Calm,-,N/A,,Clear,0,2013-08-26 09:52:00
5:52 AM,70.0,66.9,90,30.12,8.0,Calm,Calm,-,N/A,,Clear,0,2013-08-26 10:52:00
6:52 AM,71.1,68.0,90,30.13,6.0,East,4.6,-,N/A,,Clear,90,2013-08-26 11:52:00
7:52 AM,73.9,70.0,87,30.15,6.0,SE,4.6,-,N/A,,Clear,130,2013-08-26 12:52:00
8:52 AM,80.1,70.0,71,30.14,10.0,SSW,5.8,-,N/A,,Clear,210,2013-08-26 13:52:00
9:52 AM,84.9,71.1,63,30.14,10.0,SSW,8.1,-,N/A,,Clear,210,2013-08-26 14:52:00
10:52 AM,88.0,71.1,57,30.14,10.0,SSW,9.2,-,N/A,,Clear,210,2013-08-26 15:52:00
11:52 AM,91.0,70.0,50,30.13,10.0,SSW,12.7,-,N/A,,Clear,210,2013-08-26 16:52:00
12:52 PM,93.0,69.1,45,30.11,10.0,SSW,10.4,21.9,N/A,,Clear,210,2013-08-26 17:52:00
1:52 PM,95.0,70.0,44,30.08,10.0,SSW,13.8,19.6,N/A,,Clear,210,2013-08-26 18:52:00
2:52 PM,96.1,69.1,41,30.06,10.0,SSW,12.7,-,N/A,,Clear,210,2013-08-26 19:52:00
3:52 PM,95.0,69.1,43,30.05,10.0,South,12.7,21.9,N/A,,Partly Cloudy,190,2013-08-26 20:52:00
4:52 PM,95.0,69.1,43,30.04,10.0,SSW,12.7,-,N/A,,Scattered Clouds,200,2013-08-26 21:52:00
5:52 PM,93.0,69.1,45,30.04,10.0,SSW,11.5,-,N/A,,Clear,210,2013-08-26 22:52:00
6:52 PM,91.0,69.1,48,30.03,10.0,South,11.5,-,N/A,,Clear,190,2013-08-26 23:52:00
7:52 PM,87.1,70.0,57,30.04,10.0,South,8.1,-,N/A,,Clear,180,2013-08-27 00:52:00
8:52 PM,84.0,70.0,63,30.04,10.0,South,6.9,-,N/A,,Clear,180,2013-08-27 01:52:00
9:52 PM,80.1,70.0,71,30.04,10.0,South,3.5,-,N/A,,Clear,180,2013-08-27 02:52:00
10:52 PM,81.0,70.0,69,30.04,10.0,South,5.8,-,N/A,,Clear,180,2013-08-27 03:52:00
11:52 PM,81.0,70.0,69,30.03,10.0,South,10.4,-,N/A,,Clear,190,2013-08-27 04:52:00